[Iaude] MPEC X76: 2023 XN1 [a=2.54,e=0.64,i=1.6,H=26.2]

mpec at marsden.cfa.harvard.edu mpec at marsden.cfa.harvard.edu
Tue Dec 5 10:28:54 EST 2023


M.P.E.C. 2023-X76                              Issued 2023 December 5, 15:27 UT

     The Minor Planet Electronic Circulars contain information on unusual
         minor planets, routine data on comets and natural satellites,
         and occasional editorial announcements.  They are published
    on behalf of Division F of the International Astronomical Union by the
          Minor Planet Center, Smithsonian Astrophysical Observatory,
                          Cambridge, MA 02138, U.S.A.
			  
             Prepared using the Tamkin Foundation Computer Network

                              MPC at CFA.HARVARD.EDU
            URL https://www.minorplanetcenter.net/    ISSN 1523-6714

                                    2023 XN1                                    


Observations:
     K23X01N*1C2023 12 03.19852503 15 15.649+33 09 14.80         20.57GVEX076G96
     K23X01N 1C2023 12 03.20414703 15 24.620+33 09 28.30         20.06GVEX076G96
     K23X01N 1C2023 12 03.20977603 15 33.635+33 09 41.44         20.30GVEX076G96
     K23X01N KC2023 12 03.28427703 17 32.147+33 12 18.29         21.00GVEX076I52
     K23X01N KC2023 12 03.28572503 17 34.469+33 12 21.82         20.32GVEX076I52
     K23X01N KC2023 12 03.28716403 17 36.722+33 12 24.12         20.62GVEX076I52
     K23X01N KC2023 12 03.28859703 17 38.983+33 12 26.39         19.62GVEX076I52
     K23X01N KC2023 12 04.13163603 39 00.940+33 31 07.72         20.85GVEX076I52
     K23X01N KC2023 12 04.13249703 39 02.030+33 31 08.04         20.31GVEX076I52
     K23X01N KC2023 12 04.13335903 39 03.182+33 31 09.80         20.34GVEX076I52
     K23X01N KC2023 12 05.33309904 02 50.330+33 35 59.40               VEX076I52
     K23X01N KC2023 12 05.33615404 02 53.320+33 35 58.30         20.48GVEX076I52
     K23X01N KC2023 12 05.33920404 02 56.430+33 35 56.70         20.69GVEX076I52
     K23X01N KC2023 12 05.34225704 02 59.370+33 35 56.20               VEX076I52

Observer details:
G96 Mt. Lemmon Survey.  Observer H. Groeller.  Measurers E. C. Beshore, D.
    Fay, J. B. Fazekas, D. C. Fuls, A. R. Gibbs, A. D. Grauer, H. Groeller, J.
    K. Hogan, R. A. Kowalski, S. M. Larson, G. J. Leonard, D. Rankin, R. L.
    Seaman, F. C. Shelly, K. W. Wierzchos.  1.5-m reflector + 10K CCD.
I52 Steward Observatory, Mt. Lemmon Station.  Observers R. A. Kowalski, G. J.
    Leonard.  Measurers E. C. Beshore, D. Fay, J. B. Fazekas, D. C. Fuls, A.
    R. Gibbs, A. D. Grauer, H. Groeller, J. K. Hogan, R. A. Kowalski, S. M.
    Larson, G. J. Leonard, D. Rankin, R. L. Seaman, F. C. Shelly, K. W.
    Wierzchos.  1.0-m prime focus + CCD.

Orbital elements:
2023 XN1                                                 Earth MOID = 0.0069 AU
Epoch 2023 Sept. 13.0 TT = JDT 2460200.5                Veres                   
M 348.19949              (2000.0)            P               Q                  
n   0.24300156     Peri.  339.46288     +0.89473741     -0.44610482             
a   2.5432946      Node    47.04901     +0.41361644     +0.81014335             
e   0.6385387      Incl.    1.63374     +0.16842332     +0.38033963             
P   4.06           H   26.27          G   0.15           U   8                  
Residuals in seconds of arc
231203 G96 (1.2+  0.2-)   231203 I52  0.0   0.0     231205 I52  0.0   0.0
231203 G96  0.2+  0.0     231203 I52  0.0   0.4-    231205 I52  0.4-  0.0
231203 G96  0.2-  0.1+    231204 I52  0.2+  0.2+    231205 I52  0.7+  0.4-
231203 I52  0.2-  0.3-    231204 I52  0.3-  0.5-    231205 I52  0.3-  0.2+
231203 I52  0.2+  0.5+    231204 I52  0.0   0.3+

Ephemeris:
2023 XN1                 a,e,i = 2.54, 0.64, 2                   q = 0.9193
Date    TT    R. A. (2000) Decl.     Delta      r    Elong.  Phase     V
2023 11 05    18 56 05.5 -25 00 45   0.1675  0.9215    60.7   110.1    26.4
...
2023 11 20    20 07 18.2 -17 27 01   0.06638 0.9602    63.2   113.3    24.7
...
2023 11 28    23 27 32.2 +13 59 16   0.02962 0.9982   112.1    66.3    21.0
...
2023 12 04    03 35 48.6 +33 29 35   0.04981 1.0332   162.1    17.1    20.7
2023 12 05    03 56 51.0 +33 36 35   0.05581 1.0395   164.8    14.4    20.9
2023 12 06    04 13 45.4 +33 32 03   0.06210 1.0460   166.6    12.6    21.1
...
2023 12 12    05 08 29.5 +32 10 13   0.1034  1.0869   170.8     8.4    22.1
...
2023 12 20    05 35 20.1 +30 41 19   0.1642  1.1467   172.1     6.8    23.2
...
2024 01 04    05 54 28.0 +29 01 31   0.2946  1.2701   165.0    11.6    24.8

M. P. C. Staff               (C) Copyright 2023 MPC           M.P.E.C. 2023-X76





More information about the Iaude mailing list